Hourly Weather Koudougou

Today, 20 October, Tuesday

Time Temperature Precipitation Wind Pressure Humidity
00:00 +31°C° 0 mm 2 mps 731 mmHg 44%
01:00 +31°C° 0 mm 2 mps 731 mmHg 45%
02:00 +30°C° 0 mm 3 mps 731 mmHg 47%
03:00 +30°C° 0 mm 3 mps 730 mmHg 49%
04:00 +29°C° 0 mm 2 mps 731 mmHg 51%
05:00 +28°C° 0 mm 2 mps 731 mmHg 53%
06:00 +28°C° 0 mm 2 mps 731 mmHg 56%
07:00 +30°C° 0 mm 2 mps 732 mmHg 52%
08:00 +31°C° 0 mm 3 mps 733 mmHg 48%
09:00 +34°C° 0 mm 3 mps 733 mmHg 44%
10:00 +35°C° 0 mm 3 mps 733 mmHg 40%
11:00 +37°C° 0 mm 2 mps 732 mmHg 36%
12:00 +38°C° 0 mm 2 mps 732 mmHg 31%
13:00 +39°C° 0 mm 2 mps 731 mmHg 29%
14:00 +39°C° 0 mm 1 mps 731 mmHg 26%
15:00 +39°C° 0 mm 1 mps 730 mmHg 23%
16:00 +37°C° 0 mm 1 mps 730 mmHg 26%
17:00 +37°C° 0 mm 2 mps 730 mmHg 30%
18:00 +35°C° 0 mm 3 mps 731 mmHg 33%
19:00 +35°C° 0 mm 3 mps 731 mmHg 34%
20:00 +34°C° 0 mm 3 mps 732 mmHg 36%
21:00 +34°C° 0 mm 2 mps 732 mmHg 38%
22:00 +32°C° 0 mm 2 mps 732 mmHg 39%
23:00 +33°C° 0 mm 3 mps 732 mmHg 41%

Tomorrow, 21 October, Wednesday

Time Temperature Precipitation Wind Pressure Humidity
00:00 +31°C° 0 mm 3 mps 732 mmHg 42%
01:00 +30°C° 0 mm 3 mps 731 mmHg 46%
02:00 +29°C° 0 mm 3 mps 731 mmHg 49%
03:00 +28°C° 0 mm 4 mps 731 mmHg 53%
04:00 +28°C° 0 mm 3 mps 731 mmHg 57%
05:00 +27°C° 0 mm 3 mps 731 mmHg 62%
06:00 +27°C° 0 mm 3 mps 731 mmHg 66%
07:00 +29°C° 0 mm 3 mps 732 mmHg 61%
08:00 +30°C° 0 mm 2 mps 732 mmHg 56%
09:00 +32°C° 0 mm 2 mps 733 mmHg 50%
10:00 +34°C° 0 mm 3 mps 733 mmHg 45%
11:00 +36°C° 0 mm 3 mps 732 mmHg 39%
12:00 +38°C° 0 mm 3 mps 732 mmHg 34%
13:00 +38°C° 0 mm 2 mps 731 mmHg 31%
14:00 +39°C° 0 mm 1 mps 731 mmHg 27%
15:00 +40°C° 0 mm 1 mps 730 mmHg 24%
16:00 +37°C° 0 mm 1 mps 730 mmHg 27%
17:00 +36°C° 0 mm 1 mps 731 mmHg 30%
18:00 +35°C° 0 mm 1 mps 731 mmHg 32%
19:00 +35°C° 0 mm 2 mps 731 mmHg 33%
20:00 +34°C° 0 mm 2 mps 732 mmHg 34%
21:00 +34°C° 0 mm 2 mps 732 mmHg 35%
22:00 +32°C° 0 mm 2 mps 732 mmHg 37%
23:00 +32°C° 0 mm 2 mps 732 mmHg 38%

Day after tomorrow, 22 October, Thursday

Time Temperature Precipitation Wind Pressure Humidity
00:00 +31°C° 0 mm 1 mps 732 mmHg 40%
01:00 +30°C° 0 mm 2 mps 732 mmHg 41%
02:00 +30°C° 0 mm 2 mps 731 mmHg 42%
03:00 +29°C° 0 mm 3 mps 731 mmHg 43%
04:00 +29°C° 0 mm 3 mps 731 mmHg 45%
05:00 +28°C° 0 mm 3 mps 732 mmHg 48%
06:00 +28°C° 0 mm 3 mps 732 mmHg 50%
07:00 +29°C° 0 mm 3 mps 732 mmHg 48%
08:00 +31°C° 0 mm 3 mps 733 mmHg 46%
09:00 +34°C° 0 mm 3 mps 733 mmHg 44%
10:00 +36°C° 0 mm 2 mps 733 mmHg 38%
11:00 +37°C° 0 mm 2 mps 732 mmHg 33%
12:00 +39°C° 0 mm 1 mps 732 mmHg 27%
13:00 +40°C° 0 mm 3 mps 731 mmHg 23%
14:00 +41°C° 0 mm 4 mps 731 mmHg 19%
15:00 +42°C° 0 mm 6 mps 730 mmHg 15%
16:00 +40°C° 0 mm 5 mps 730 mmHg 17%
17:00 +38°C° 0 mm 4 mps 730 mmHg 20%
18:00 +36°C° 0 mm 3 mps 731 mmHg 23%
19:00 +35°C° 0 mm 3 mps 731 mmHg 25%
20:00 +34°C° 0 mm 3 mps 732 mmHg 27%
21:00 +33°C° 0 mm 3 mps 732 mmHg 28%
22:00 +31°C° 0 mm 2 mps 732 mmHg 31%
23:00 +31°C° 0 mm 2 mps 732 mmHg 33%

23 October, Friday

Time Temperature Precipitation Wind Pressure Humidity
00:00 +30°C° 0 mm 1 mps 732 mmHg 35%
01:00 +29°C° 0 mm 1 mps 732 mmHg 38%
02:00 +29°C° 0 mm 1 mps 732 mmHg 40%
03:00 +28°C° 0 mm 1 mps 732 mmHg 42%
04:00 +28°C° 0 mm 1 mps 732 mmHg 42%
05:00 +27°C° 0 mm 1 mps 732 mmHg 43%
06:00 +27°C° 0 mm 1 mps 732 mmHg 43%
07:00 +29°C° 0 mm 2 mps 733 mmHg 40%
08:00 +31°C° 0 mm 2 mps 733 mmHg 38%
09:00 +34°C° 0 mm 2 mps 734 mmHg 35%
10:00 +35°C° 0 mm 1 mps 733 mmHg 31%
11:00 +36°C° 0 mm 1 mps 733 mmHg 26%
12:00 +36°C° 0 mm 0 mps 732 mmHg 22%
13:00 +40°C° 0 mm 2 mps 732 mmHg 19%
14:00 +41°C° 0 mm 4 mps 731 mmHg 17%
15:00 +42°C° 0 mm 5 mps 730 mmHg 14%
16:00 +40°C° 0 mm 4 mps 731 mmHg 16%
17:00 +37°C° 0 mm 3 mps 731 mmHg 18%
18:00 +36°C° 0 mm 3 mps 731 mmHg 21%
19:00 +34°C° 0 mm 2 mps 731 mmHg 22%
20:00 +32°C° 0 mm 2 mps 732 mmHg 23%
21:00 +31°C° 0 mm 1 mps 732 mmHg 24%
22:00 +31°C° 0 mm 1 mps 732 mmHg 25%
23:00 +30°C° 0 mm 1 mps 732 mmHg 26%

24 October, Saturday

Time Temperature Precipitation Wind Pressure Humidity
00:00 +29°C° 0 mm 1 mps 732 mmHg 26%
01:00 +29°C° 0 mm 1 mps 731 mmHg 27%
02:00 +28°C° 0 mm 2 mps 731 mmHg 28%
03:00 +28°C° 0 mm 2 mps 731 mmHg 29%
04:00 +27°C° 0 mm 2 mps 731 mmHg 32%
05:00 +27°C° 0 mm 2 mps 732 mmHg 35%
06:00 +26°C° 0 mm 1 mps 732 mmHg 37%
07:00 +28°C° 0 mm 2 mps 732 mmHg 36%
08:00 +30°C° 0 mm 2 mps 733 mmHg 35%
09:00 +32°C° 0 mm 2 mps 734 mmHg 33%
10:00 +34°C° 0 mm 1 mps 733 mmHg 30%
11:00 +36°C° 0 mm 1 mps 733 mmHg 26%
12:00 +36°C° 0 mm 0 mps 732 mmHg 22%
13:00 +39°C° 0 mm 1 mps 732 mmHg 19%
14:00 +40°C° 0 mm 2 mps 731 mmHg 17%
15:00 +40°C° 0 mm 3 mps 731 mmHg 14%
16:00 +38°C° 0 mm 2 mps 731 mmHg 16%
17:00 +36°C° 0 mm 2 mps 731 mmHg 17%
18:00 +35°C° 0 mm 2 mps 731 mmHg 19%
19:00 +34°C° 0 mm 2 mps 731 mmHg 20%
20:00 +32°C° 0 mm 2 mps 731 mmHg 21%
21:00 +31°C° 0 mm 2 mps 732 mmHg 22%
22:00 +30°C° 0 mm 2 mps 732 mmHg 24%
23:00 +30°C° 0 mm 2 mps 732 mmHg 25%

25 October, Sunday

Time Temperature Precipitation Wind Pressure Humidity
00:00 +29°C° 0 mm 1 mps 732 mmHg 27%
01:00 +28°C° 0 mm 1 mps 731 mmHg 29%
02:00 +28°C° 0 mm 1 mps 731 mmHg 31%
03:00 +27°C° 0 mm 1 mps 730 mmHg 32%
04:00 +27°C° 0 mm 1 mps 731 mmHg 35%
05:00 +26°C° 0 mm 1 mps 731 mmHg 38%
06:00 +26°C° 0 mm 2 mps 731 mmHg 40%
07:00 +28°C° 0 mm 2 mps 731 mmHg 38%
08:00 +30°C° 0 mm 2 mps 732 mmHg 36%
09:00 +32°C° 0 mm 2 mps 732 mmHg 34%
10:00 +35°C° 0 mm 2 mps 732 mmHg 29%
11:00 +37°C° 0 mm 2 mps 732 mmHg 24%
12:00 +39°C° 0 mm 1 mps 731 mmHg 19%
13:00 +39°C° 0 mm 2 mps 731 mmHg 17%
14:00 +39°C° 0 mm 2 mps 730 mmHg 16%
15:00 +40°C° 0 mm 3 mps 729 mmHg 14%
16:00 +38°C° 0 mm 3 mps 729 mmHg 16%
17:00 +36°C° 0 mm 3 mps 729 mmHg 18%
18:00 +35°C° 0 mm 3 mps 730 mmHg 21%
19:00 +34°C° 0 mm 2 mps 730 mmHg 22%
20:00 +32°C° 0 mm 1 mps 730 mmHg 24%
21:00 +31°C° 0 mm 1 mps 731 mmHg 26%
22:00 +31°C° 0 mm 1 mps 731 mmHg 26%
23:00 +30°C° 0 mm 2 mps 731 mmHg 26%

26 October, Monday

Time Temperature Precipitation Wind Pressure Humidity
00:00 +30°C° 0 mm 2 mps 731 mmHg 27%
01:00 +29°C° 0 mm 2 mps 731 mmHg 28%
02:00 +29°C° 0 mm 2 mps 731 mmHg 30%
03:00 +28°C° 0 mm 2 mps 730 mmHg 31%
04:00 +28°C° 0 mm 2 mps 730 mmHg 34%
05:00 +27°C° 0 mm 2 mps 731 mmHg 37%
06:00 +26°C° 0 mm 1 mps 731 mmHg 40%
07:00 +28°C° 0 mm 2 mps 731 mmHg 38%
08:00 +31°C° 0 mm 2 mps 732 mmHg 35%
09:00 +34°C° 0 mm 2 mps 732 mmHg 33%
10:00 +35°C° 0 mm 2 mps 732 mmHg 28%
11:00 +37°C° 0 mm 3 mps 731 mmHg 23%
12:00 +39°C° 0 mm 3 mps 731 mmHg 18%
13:00 +40°C° 0 mm 3 mps 730 mmHg 16%
14:00 +41°C° 0 mm 4 mps 730 mmHg 15%
15:00 +42°C° 0 mm 4 mps 729 mmHg 13%
16:00 +38°C° 0 mm 3 mps 729 mmHg 16%
17:00 +36°C° 0 mm 2 mps 729 mmHg 18%
18:00 +33°C° 0 mm 1 mps 729 mmHg 20%
19:00 +34°C° 0 mm 2 mps 729 mmHg 21%
20:00 +32°C° 0 mm 2 mps 730 mmHg 22%
21:00 +31°C° 0 mm 2 mps 730 mmHg 22%
22:00 +31°C° 0 mm 2 mps 730 mmHg 24%
23:00 +30°C° 0 mm 2 mps 730 mmHg 25%
Show more

We Need Your Consent

Meteoprog and our Service Providers may store and access personal data such as cookies, device identifiers or other similar technologies on your device and process such data to personalise content and ads, as well as provide social media features and to analyse the traffic.

  • Store and/or access information on your device

    Cookies, device identifiers or other information can be stored or accessed on your device for the purposes indicated above.

  • Personalised ads and content, ad and content measurement, audience insights, and products development

    Ads and content can be personalised based on a profile. More data can be added to better personalise ads and content. Ad and content performance can be measured. Insights about the audience who saw the ads and content can be derived. Such data can be used to develop or improve user’s experience, systems and software.

By clicking ‘I Agree’ you will allow the use of indicated cookies, device identifiers, web beacons or other similar technologies. Your settings can be changed in the browser on your device.

For certain purposes, legitimate interests may be relied on, rather than consent. You can read more about this in our Privacy and Cookie Policy.